{"data":{"norad_id":54173,"epoch":"2026-05-25T01:33:40.650912Z","epoch_age_seconds":72630,"freshness":"FRESH","line1":"1 54173U 22141S   26145.06505383 -.00001657  00000+0 -86015-4 0  9992","line2":"2 54173  53.2141  20.8374 0001402 105.6942 254.4205 15.08847185197394","mean_motion":15.08847185,"eccentricity":0.0001402,"inclination_deg":53.2141,"raan_deg":20.8374,"arg_perigee_deg":105.6942,"mean_anomaly_deg":254.4205,"bstar":-8.6015e-5,"rev_number":19739,"period_min":95.437100212372,"perigee_km":538.75154362914,"apogee_km":540.69131113217,"semimajor_km":6917.8584273807,"source":"CELESTRAK","updated_at":"2026-05-25T13:38:17.662652Z"}}